Regional Weather Roundup
Issued by NWS

Home | Current Version | Previous Version | Text Only | Print | Product List | Glossary Off
Versions: 1 2 3 4 5 6 7 8 9 10 11 12 13 14 15 16 17 18 19 20 21 22 23 24 25 26 27 28 29 30 31 32 33 34 35 36 37 38 39 40 41 42 43 44 45 46 47 48 49 50

000
ASUS43 KLMK 190702
RWRKY
KENTUCKY REGIONAL WEATHER ROUNDUP
NATIONAL WEATHER SERVICE LOUISVILLE KY
300 AM EDT THU OCT 19 2017

NOTE "FAIR" INDICATES FEW OR NO CLOUDS BELOW 12,000 FEET
WITH NO SIGNIFICANT WEATHER AND/OR OBSTRUCTIONS TO VISIBILITY.

KYZ001>023-026-027-061>063-070>075-190800-
WESTERN AND SOUTH CENTRAL KENTUCKY

CITY           SKY/WX    TMP DP  RH WIND       PRES   REMARKS
PADUCAH        PTCLDY    57  45  64 S5        30.18R
HENDERSON      CLEAR     50  45  83 S3        30.20R
OWENSBORO      CLOUDY    50  45  83 SE5       30.21R
HOPKINSVILLE   PTCLDY    51  44  77 CALM      30.21S
BOWLING GREEN  CLEAR     46  45  96 CALM      30.23F
GLASGOW        NOT AVBL
$$

KYZ024-025-028>034-038-045-046-053-190800-
NORTH CENTRAL KENTUCKY

CITY           SKY/WX    TMP DP  RH WIND       PRES   REMARKS
LOUISVILLE/SDF PTCLDY    51  46  83 SE7       30.20S
LOUISVILLE/LOU CLEAR     48  46  93 CALM      30.21S
FORT KNOX      CLEAR     47  43  84 CALM      30.19S
$$

KYZ035>037-039>044-047>052-055>060-089>105-190800-
NORTHEAST KENTUCKY

CITY           SKY/WX    TMP DP  RH WIND       PRES   REMARKS
LEXINGTON      CLEAR     49  43  80 S8        30.23S
COVINGTON      CLEAR     47  44  90 S8        30.19F
FRANKFORT      CLEAR     46  41  82 CALM      30.21S
$$

KYZ054-064>069-076>088-106>120-190800-
SOUTHEAST KENTUCKY

CITY           SKY/WX    TMP DP  RH WIND       PRES   REMARKS
JACKSON        CLEAR     51  45  79 CALM      30.25R
LONDON         CLEAR     44  41  89 CALM      30.26S
SOMERSET       NOT AVBL
MIDDLESBORO    PTCLDY    42  42 100 CALM      30.29S
MONTICELLO     SUNNY     40  39  97 CALM      30.27S
$$





USA.gov is the U.S. government's official web portal to all federal, state and local government web resources and services.